EW4258 Weather Reports


Display with metric or nautical units.
time (UTC)temp
F
wind
direction
speed
MPH
gust
MPH
rain 1hr
in
rain 24hr
in
rain mn
in
humidity
%
barometer
mb
20260903132110 78 247 4.0 6.0 0.00 0.00 0.00 38 1020.8
20260903130110 78 315 4.0 7.0 0.00 0.00 0.00 38 1020.9
20260903125110 78 247 4.0 5.0 0.00 0.00 0.00 37 1020.9
20260903124110 78 292 5.0 8.0 0.00 0.00 0.00 37 1020.9
20260903123109 78 225 4.0 6.0 0.00 0.00 0.00 36 1020.9
20260903122109 78 247 6.0 7.0 0.00 0.00 0.00 37 1020.9
20260903121109 79 270 6.0 7.0 0.00 0.00 0.00 37 1020.9
20260903120109 79 315 6.0 8.0 0.00 0.00 0.00 38 1020.6
20260903115109 79 270 4.0 5.0 0.00 0.00 0.00 39 1020.6
20260903112109 77 247 5.0 7.0 0.00 0.00 0.00 39 1020.9
20260903111109 78 292 3.0 6.0 0.00 0.00 0.00 41 1020.9
20260903110113 77 247 2.0 5.0 0.00 0.00 0.00 45 1020.8
20260903105113 76 225 1.0 4.0 0.00 0.00 0.00 45 1020.8
20260903103112 76 225 3.0 4.0 0.00 0.00 0.00 48 1021.2
20260903102112 74 157 2.0 4.0 0.00 0.00 0.00 50 1021.7
20260903101112 73 157 2.0 3.0 0.00 0.00 0.00 52 1021.7
20260903100112 72 247 2.0 2.0 0.00 0.00 0.00 51 1021.9
20260903095112 72 202 1.0 0.0 0.00 0.00 0.00 54 1021.9
20260903093113 70 225 1.0 0.0 0.00 0.00 0.00 57 1022.0
20260903092112 69 157 0.0 0.0 0.00 0.00 0.00 57 1022.3
20260903091112 69 135 1.0 2.0 0.00 0.00 0.00 57 1022.3
20260903090112 68 292 0.0 2.0 0.00 0.00 0.00 59 1022.4
20260903084113 66 292 0.0 1.0 0.00 0.00 0.00 64 1022.2
20260903083111 66 247 1.0 0.0 0.00 0.00 0.00 63 1022.2
20260903082111 66 247 1.0 2.0 0.00 0.00 0.00 64 1022.7
20260903081111 66 202 1.0 0.0 0.00 0.00 0.00 65 1022.7
20260903080111 66 225 1.0 2.0 0.00 0.00 0.00 64 1022.8
20260903075111 65 247 1.0 0.0 0.00 0.00 0.00 64 1022.8
20260903074112 65 202 1.0 3.0 0.00 0.00 0.00 64 1022.9
20260903073111 65 225 1.0 1.0 0.00 0.00 0.00 64 1022.9
20260903072111 65 225 0.0 1.0 0.00 0.00 0.00 64 1022.8
20260903071111 65 90 1.0 1.0 0.00 0.00 0.00 66 1022.8
20260903070111 64 315 0.0 0.0 0.00 0.00 0.00 68 1022.8
20260903065111 63 202 0.0 0.0 0.00 0.00 0.00 68 1022.8
20260903063111 62 180 0.0 1.0 0.00 0.00 0.00 70 1022.3
20260903061110 61 157 0.0 0.0 0.00 0.00 0.00 74 1022.7
20260903060110 59 135 0.0 0.0 0.00 0.00 0.00 74 1022.6
20260903055110 59 135 0.0 0.0 0.00 0.00 0.00 74 1022.6
20260903054110 59 90 0.0 1.0 0.00 0.00 0.00 74 1022.5
20260903053110 58 90 0.0 0.0 0.00 0.00 0.00 74 1022.5
20260903052111 58 202 0.0 0.0 0.00 0.00 0.00 74 1022.3
20260903051110 58 180 0.0 0.0 0.00 0.00 0.00 74 1022.3
20260903050110 58 202 0.0 0.0 0.00 0.00 0.00 74 1022.2
20260903045112 58 90 0.0 0.0 0.00 0.00 0.00 73 1022.2
20260903044110 58 337 0.0 0.0 0.00 0.00 0.00 74 1022.2
20260903043110 58 135 0.0 0.0 0.00 0.00 0.00 73 1022.2
20260903042110 58 202 0.0 0.0 0.00 0.00 0.00 73 1022.1
20260903040110 58 202 0.0 0.0 0.00 0.00 0.00 73 1022.1
20260903035109 59 135 0.0 0.0 0.00 0.00 0.00 72 1022.1
20260903032112 59 112 0.0 0.0 0.00 0.00 0.00 72 1022.1
20260903031114 59 90 0.0 0.0 0.00 0.00 0.00 72 1022.1
20260903025112 59 202 0.0 0.0 0.00 0.00 0.00 72 1021.9
20260903024112 59 67 0.0 0.0 0.00 0.00 0.00 70 1021.9
20260903023112 59 90 0.0 0.0 0.00 0.00 0.00 71 1021.9
20260903022112 59 135 0.0 0.0 0.00 0.00 0.00 71 1021.8
20260903021112 59 202 0.0 0.0 0.00 0.00 0.00 71 1021.8
20260903014111 59 67 0.0 0.0 0.00 0.00 0.00 70 1021.8
20260903013111 60 202 0.0 0.0 0.00 0.00 0.00 70 1021.8
20260903012111 60 180 0.0 0.0 0.00 0.00 0.00 69 1021.7
20260903011111 60 135 0.0 0.0 0.00 0.00 0.00 69 1021.7
20260903010113 60 90 0.0 0.0 0.00 0.00 0.00 69 1021.9
20260903005111 60 112 0.0 0.0 0.00 0.00 0.00 69 1021.9
20260903004111 60 360 0.0 0.0 0.00 0.00 0.00 69 1021.9
20260903003111 60 135 0.0 0.0 0.00 0.00 0.00 69 1021.9
20260903002111 60 157 0.0 0.0 0.00 0.00 0.00 68 1021.9
20260903001111 60 180 0.0 0.0 0.00 0.00 0.00 68 1021.9
20260903000111 60 67 0.0 0.0 0.00 0.00 0.00 67 1021.8
20260902235111 60 157 0.0 0.0 0.00 0.00 0.00 68 1021.8
20260902234110 60 202 0.0 0.0 0.00 0.00 0.00 67 1021.9
20260902233110 60 135 0.0 0.0 0.00 0.00 0.00 67 1021.9
20260902232110 60 135 0.0 0.0 0.00 0.00 0.00 67 1021.9
20260902231110 61 135 0.0 0.0 0.00 0.00 0.00 66 1021.9
20260902230110 61 67 0.0 0.0 0.00 0.00 0.00 65 1021.8
20260902225110 61 202 0.0 0.0 0.00 0.00 0.00 66 1021.8
20260902224110 61 90 0.0 0.0 0.00 0.00 0.00 65 1021.6
20260902223110 62 90 0.0 0.0 0.00 0.00 0.00 65 1021.6
20260902222110 62 112 0.0 0.0 0.00 0.00 0.00 65 1021.7
20260902221110 62 180 0.0 0.0 0.00 0.00 0.00 64 1021.7
20260902220109 63 67 0.0 0.0 0.00 0.00 0.00 64 1021.6
20260902215109 63 247 0.0 0.0 0.00 0.00 0.00 64 1021.6
20260902214109 64 135 0.0 0.0 0.00 0.00 0.00 62 1020.8
20260902213109 64 202 0.0 0.0 0.00 0.00 0.00 63 1020.8
20260902212114 64 135 0.0 0.0 0.00 0.00 0.00 62 1021.3
20260902211114 64 135 0.0 0.0 0.00 0.00 0.00 62 1021.3
20260902210114 65 202 0.0 0.0 0.00 0.00 0.00 60 1021.2
20260902205114 65 45 0.0 0.0 0.00 0.00 0.00 60 1021.2
20260902202113 66 67 1.0 1.0 0.00 0.00 0.00 57 1021.1
20260902201113 67 202 1.0 0.0 0.00 0.00 0.00 57 1021.1
20260902200113 67 112 2.0 2.0 0.00 0.00 0.00 55 1021.1
20260902195115 67 90 1.0 4.0 0.00 0.00 0.00 55 1021.1
20260902194113 68 67 0.0 2.0 0.00 0.00 0.00 54 1021.1
20260902193113 68 202 0.0 0.0 0.00 0.00 0.00 52 1021.1
20260902192114 69 292 0.0 0.0 0.00 0.00 0.00 50 1020.8
20260902191113 69 247 1.0 0.0 0.00 0.00 0.00 50 1020.8
20260902190113 70 360 1.0 0.0 0.00 0.00 0.00 49 1019.9
20260902184113 71 315 2.0 3.0 0.00 0.00 0.00 48 1020.3
20260902182112 71 315 3.0 4.0 0.00 0.00 0.00 47 1020.0
20260902181112 71 315 3.0 6.0 0.00 0.00 0.00 47 1020.0
20260902180112 72 225 2.0 3.0 0.00 0.00 0.00 47 1019.5
20260902175112 72 315 2.0 2.0 0.00 0.00 0.00 47 1019.5
20260902174113 72 247 3.0 2.0 0.00 0.00 0.00 46 1019.2
20260902171112 74 337 3.0 3.0 0.00 0.00 0.00 45 1019.0
20260902170112 74 247 2.0 1.0 0.00 0.00 0.00 45 1019.0
20260902165112 75 315 3.0 3.0 0.00 0.00 0.00 44 1019.0
20260902164111 75 292 3.0 4.0 0.00 0.00 0.00 43 1018.9
20260902163111 76 315 3.0 4.0 0.00 0.00 0.00 42 1018.9
20260902162111 76 315 3.0 9.0 0.00 0.00 0.00 42 1018.8
20260902161111 77 337 3.0 7.0 0.00 0.00 0.00 42 1018.8
20260902160111 77 315 3.0 5.0 0.00 0.00 0.00 42 1018.8
20260902155111 77 337 3.0 2.0 0.00 0.00 0.00 41 1018.8
20260902154111 77 270 3.0 3.0 0.00 0.00 0.00 40 1018.8
20260902153111 78 315 3.0 6.0 0.00 0.00 0.00 39 1018.8
20260902152111 78 315 3.0 6.0 0.00 0.00 0.00 40 1018.9
20260902151111 78 22 3.0 3.0 0.00 0.00 0.00 39 1018.9
20260902150110 79 360 3.0 3.0 0.00 0.00 0.00 39 1018.9
20260902145110 79 270 3.0 4.0 0.00 0.00 0.00 39 1018.9
20260902144111 79 292 3.0 1.0 0.00 0.00 0.00 38 1019.1
20260902143111 79 315 3.0 4.0 0.00 0.00 0.00 37 1019.1
20260902142110 79 315 3.0 3.0 0.00 0.00 0.00 38 1018.8
20260902141110 78 67 4.0 4.0 0.00 0.00 0.00 39 1018.8
20260902140110 78 360 4.0 6.0 0.00 0.00 0.00 37 1018.9
20260902135111 78 315 4.0 6.0 0.00 0.00 0.00 38 1018.9